Tracking 28790 objects as of 19-Apr-2024
HD Live streaming from Space Station
objects crossing your sky now

COSMOS 2251 DEB

Track COSMOS 2251 DEB now!
10-day predictions


NORAD ID: 34054
Int'l Code: 1993-036JR
Perigee: 631.7 km
Apogee: 667.1 km
Inclination: 74.0 °
Period: 97.6 minutes
Semi major axis: 7020 km
RCS: 0.028 m2 (small)
Launch date: June 16, 1993
Source: Commonwealth of Independent States (former USSR) (CIS)
Launch site: PLESETSK MISSILE AND SPACE COMPLEX (PKMTR)

Note: This is SATELLITE DEBRIS
Your satellite tracking list
Your tracking list is empty




NASA's NSSDC Master Catalog

Two Line Element Set (TLE):
1 34054U 93036JR  24108.84658102  .00033185  00000-0  47858-2 0  9990
2 34054  74.0328   6.0220 0025216 244.1315 196.3333 14.75906707804767
Source of the keplerian elements: AFSPC